Terminal Aerodrome Forecast
Issued by NWS Aberdeen, SD

Home | Current Version | Previous Version | Text Only | Print | Product List | Glossary On
Versions: 1 2 3 4 5 6 7 8 9 10 11 12 13 14 15 16 17 18 19 20 21 22 23 24 25 26 27 28 29 30 31 32 33 34 35 36 37 38 39 40 41 42 43 44 45 46 47 48 49 50
754
FTAK31 PAFA 040721 AAA
TAFABR
TAF AMD
PABR 040721Z 0407/0506 05008KT 5SM BR OVC005
     FM041800 07010KT P6SM SCT007 OVC010=

USA.gov is the U.S. government's official web portal to all federal, state and local government web resources and services.